Sarasota, FL

4:36 AM EDT on April 25, 2017 (GMT -0400)
Sarasota-bradenton

Weather History for KSRQ - December, 2002

Change the Weather History Date:

Sunday, December 29, 2002

  Actual Average Record
Temperature  
Mean Temperature 50 °F 62 °F  
Max Temperature 64 °F 71 °F 85 °F (1990)
Min Temperature 37 °F 52 °F 31 °F (2010)
Degree Days  
Heating Degree Days 14 5  
Month to date heating degree days 110  
Since 1 July heating degree days 143  
Cooling Degree Days 0 2  
Month to date cooling degree days 72  
Year to date cooling degree days 3372  
Moisture  
Dew Point 43 °F    
Average Humidity 80    
Maximum Humidity 100    
Minimum Humidity 42    
Precipitation  
Precipitation 0.00 in 0.06 in 1.60 in (1942)
Month to date precipitation 2.40  
Year to date precipitation 52.88  
Sea Level Pressure  
Sea Level Pressure 30.29 in    
Wind  
Wind Speed 3 mph (NNE)    
Max Wind Speed 9 mph    
Max Gust Speed -    
Visibility 10 miles    
Events      
T = Trace of Precipitation, MM = Missing Value Source: NWS Daily Summary

Daily Weather History Graph

Daily Weather History Graph

Search for Another Location

Airport or City:

Trip Planner

Search our weather history database for the weather conditions in past years. The results will help you decide how hot, cold, wet, or windy it might be!

Date:

Astronomy

Dec. 29, 2002 Rise Set
Actual Time 7:19 AM EST 5:45 PM EST
Civil Twilight 6:53 AM EST 6:10 PM EST
Nautical Twilight 6:24 AM EST 6:39 PM EST
Astronomical Twilight 5:56 AM EST 7:08 PM EST
Moon 2:49 AM EST (12/29) 2:17 PM EST (12/29)
Length of Visible Light 11h 17m
Length of Day
10h 25m
Waning Crescent, 21% of the Moon is Illuminated
Dec 29
Waning Crescent
Jan 2
New
Jan 10
First Quarter
Jan 18
Full
Jan 25
Last Quarter

Hourly Weather History & Observations

Time (EST) Temp. Windchill Dew Point Humidity Pressure Visibility Wind Dir Wind Speed Gust Speed Precip Events Conditions
12:53 AM 43.0 °F 41.3 °F 41.0 °F 93% 30.33 in 10.0 mi NE 3.5 mph - N/A   Clear
1:53 AM 42.1 °F - 42.1 °F 100% 30.32 in 10.0 mi Calm Calm - N/A   Clear
2:53 AM 42.1 °F - 42.1 °F 100% 30.31 in 10.0 mi Calm Calm - N/A   Clear
3:53 AM 41.0 °F - 41.0 °F 100% 30.30 in 10.0 mi Calm Calm - N/A   Clear
4:53 AM 37.9 °F - 37.9 °F 100% 30.30 in 10.0 mi Calm Calm - N/A   Clear
5:53 AM 39.0 °F - 39.0 °F 100% 30.31 in 3.0 mi Calm Calm - N/A   Clear
6:53 AM 39.9 °F 35.8 °F 39.9 °F 100% 30.32 in 6.0 mi NE 5.8 mph - N/A   Clear
7:53 AM 43.0 °F 39.5 °F 42.1 °F 97% 30.33 in 10.0 mi NE 5.8 mph - N/A   Clear
8:53 AM 48.9 °F - 46.0 °F 90% 30.35 in 10.0 mi NNE 6.9 mph - N/A   Clear
9:53 AM 54.0 °F - 44.1 °F 69% 30.35 in 10.0 mi NNE 9.2 mph - N/A   Clear
10:53 AM 57.9 °F - 39.9 °F 51% 30.34 in 10.0 mi NNE 9.2 mph - N/A   Clear
11:53 AM 61.0 °F - 39.9 °F 46% 30.32 in 10.0 mi NE 8.1 mph - N/A   Clear
12:53 PM 63.0 °F - 41.0 °F 45% 30.27 in 10.0 mi NE 6.9 mph - N/A   Clear
1:53 PM 64.9 °F - 41.0 °F 42% 30.25 in 10.0 mi Variable 3.5 mph - N/A   Clear
2:53 PM 64.9 °F - 46.9 °F 52% 30.24 in 10.0 mi Variable 3.5 mph - N/A   Clear
3:53 PM 64.9 °F - 46.9 °F 52% 30.24 in 10.0 mi West 6.9 mph - N/A   Clear
4:53 PM 64.9 °F - 41.0 °F 42% 30.23 in 10.0 mi North 6.9 mph - N/A   Clear
5:53 PM 59.0 °F - 45.0 °F 60% 30.24 in 10.0 mi NNW 4.6 mph - N/A   Clear
6:53 PM 55.0 °F - 48.9 °F 80% 30.26 in 10.0 mi Calm Calm - N/A   Clear
7:53 PM 48.9 °F - 48.9 °F 100% 30.26 in 10.0 mi Calm Calm - N/A   Clear
8:53 PM 46.9 °F - 46.9 °F 100% 30.27 in 10.0 mi Calm Calm - N/A   Clear
9:53 PM 48.9 °F - 46.0 °F 90% 30.28 in 10.0 mi NNE 5.8 mph - N/A   Clear
10:53 PM 46.9 °F - 46.9 °F 100% 30.28 in 10.0 mi Calm Calm - N/A   Clear
11:53 PM 44.1 °F - 44.1 °F 100% 30.27 in 10.0 mi Calm Calm - N/A   Clear